Time,TemperatureF,DewpointF,PressureIn,WindDirection,WindDirectionDegrees,WindSpeedMPH,WindSpeedGustMPH,Humidity,HourlyPrecipIn,Conditions,Clouds,dailyrainin,SoftwareType,DateUTC
2013-03-24 00:04:00,46.1,33.8,30.03,ENE,68,0.0,0.2,62,0.00,,,0.00,WUHU216HW,2013-03-24 07:04:00,
2013-03-24 00:09:00,45.9,33.6,30.03,ENE,68,0.0,0.4,62,0.00,,,0.00,WUHU216HW,2013-03-24 07:09:00,
2013-03-24 00:14:00,45.7,33.4,30.03,ENE,68,0.0,0.4,62,0.00,,,0.00,WUHU216HW,2013-03-24 07:14:00,
2013-03-24 00:19:00,45.5,33.7,30.02,East,90,0.0,0.4,63,0.00,,,0.00,WUHU216HW,2013-03-24 07:19:00,
2013-03-24 00:24:00,45.4,33.5,30.02,East,90,0.0,0.4,63,0.00,,,0.00,WUHU216HW,2013-03-24 07:24:00,
2013-03-24 00:29:00,45.2,34.1,30.02,East,90,0.2,0.4,65,0.00,,,0.00,WUHU216HW,2013-03-24 07:29:00,
2013-03-24 00:34:00,45.0,33.6,30.02,ENE,68,0.0,0.4,64,0.00,,,0.00,WUHU216HW,2013-03-24 07:34:00,
2013-03-24 00:39:00,44.8,33.4,30.02,East,90,0.2,0.4,64,0.00,,,0.00,WUHU216HW,2013-03-24 07:39:00,
2013-03-24 00:44:00,44.6,33.2,30.02,East,90,0.0,0.4,64,0.00,,,0.00,WUHU216HW,2013-03-24 07:44:00,
2013-03-24 00:49:00,44.3,33.2,30.03,East,90,0.0,0.4,65,0.00,,,0.00,WUHU216HW,2013-03-24 07:49:00,
2013-03-24 00:54:00,44.3,33.2,30.03,East,90,0.0,0.0,65,0.00,,,0.00,WUHU216HW,2013-03-24 07:54:00,
2013-03-24 00:59:00,44.1,33.9,30.03,East,90,0.0,0.4,67,0.00,,,0.00,WUHU216HW,2013-03-24 07:59:00,
2013-03-24 01:04:00,43.9,33.7,30.03,East,90,0.0,0.4,67,0.00,,,0.00,WUHU216HW,2013-03-24 08:04:00,
2013-03-24 01:09:00,43.7,33.1,30.03,East,90,0.0,0.2,66,0.00,,,0.00,WUHU216HW,2013-03-24 08:09:00,
2013-03-24 01:14:00,43.6,33.3,30.03,East,90,0.2,0.2,67,0.00,,,0.00,WUHU216HW,2013-03-24 08:14:00,
2013-03-24 01:19:00,43.6,33.8,30.02,ENE,68,0.4,0.4,68,0.00,,,0.00,WUHU216HW,2013-03-24 08:19:00,
2013-03-24 01:24:00,43.4,33.6,30.02,East,90,0.4,0.7,68,0.00,,,0.00,WUHU216HW,2013-03-24 08:24:00,
2013-03-24 01:29:00,43.4,33.6,30.02,East,90,0.0,0.7,68,0.00,,,0.00,WUHU216HW,2013-03-24 08:29:00,
2013-03-24 01:35:00,43.2,33.4,30.02,East,90,0.0,0.0,68,0.00,,,0.00,WUHU216HW,2013-03-24 08:35:00,
2013-03-24 01:40:00,43.2,33.4,30.02,East,90,0.0,0.0,68,0.00,,,0.00,WUHU216HW,2013-03-24 08:40:00,
2013-03-24 01:45:00,43.0,33.2,30.02,East,90,0.0,0.0,68,0.00,,,0.00,WUHU216HW,2013-03-24 08:45:00,
2013-03-24 01:50:00,42.8,33.5,30.03,East,90,0.0,0.0,69,0.00,,,0.00,WUHU216HW,2013-03-24 08:50:00,
2013-03-24 01:55:00,42.8,33.5,30.02,East,90,0.0,0.0,69,0.00,,,0.00,WUHU216HW,2013-03-24 08:55:00,
2013-03-24 02:00:00,42.7,33.7,30.02,East,90,0.0,0.4,70,0.00,,,0.00,WUHU216HW,2013-03-24 09:00:00,
2013-03-24 02:05:00,42.5,33.1,30.03,East,90,0.0,0.4,69,0.00,,,0.00,WUHU216HW,2013-03-24 09:05:00,
2013-03-24 02:10:00,42.3,33.0,30.03,East,90,0.2,0.2,69,0.00,,,0.00,WUHU216HW,2013-03-24 09:10:00,
2013-03-24 02:15:00,42.1,33.1,30.03,ENE,68,0.4,0.4,70,0.00,,,0.00,WUHU216HW,2013-03-24 09:15:00,
2013-03-24 02:20:00,42.1,33.5,30.03,ENE,68,0.0,0.7,71,0.00,,,0.00,WUHU216HW,2013-03-24 09:20:00,
2013-03-24 02:25:00,42.1,33.5,30.03,ENE,68,0.0,0.7,71,0.00,,,0.00,WUHU216HW,2013-03-24 09:25:00,
2013-03-24 02:30:00,41.9,32.9,30.02,ENE,68,0.0,0.4,70,0.00,,,0.00,WUHU216HW,2013-03-24 09:30:00,
2013-03-24 02:35:00,41.8,32.8,30.02,ENE,68,0.0,0.0,70,0.00,,,0.00,WUHU216HW,2013-03-24 09:35:00,
2013-03-24 02:40:00,41.8,32.8,30.02,NNW,338,0.0,0.0,70,0.00,,,0.00,WUHU216HW,2013-03-24 09:40:00,
2013-03-24 02:45:00,41.6,32.6,30.02,NNW,338,0.0,0.0,70,0.00,,,0.00,WUHU216HW,2013-03-24 09:45:00,
2013-03-24 02:50:00,41.4,32.4,30.02,NE,45,0.4,0.4,70,0.00,,,0.00,WUHU216HW,2013-03-24 09:50:00,
2013-03-24 02:55:00,41.4,32.8,30.02,ENE,68,0.2,0.4,71,0.00,,,0.00,WUHU216HW,2013-03-24 09:55:00,
2013-03-24 03:01:00,41.4,32.8,30.03,ENE,68,0.2,0.4,71,0.00,,,0.00,WUHU216HW,2013-03-24 10:01:00,
2013-03-24 03:06:00,41.4,33.7,30.03,ENE,68,0.0,0.2,74,0.00,,,0.00,WUHU216HW,2013-03-24 10:06:00,
2013-03-24 03:11:00,41.2,32.9,30.03,ENE,68,0.7,0.7,72,0.00,,,0.00,WUHU216HW,2013-03-24 10:11:00,
2013-03-24 03:16:00,41.0,32.7,30.02,East,90,0.4,0.7,72,0.00,,,0.00,WUHU216HW,2013-03-24 10:16:00,
2013-03-24 03:21:00,41.0,33.0,30.03,East,90,0.0,0.4,73,0.00,,,0.00,WUHU216HW,2013-03-24 10:21:00,
2013-03-24 03:26:00,40.9,32.9,30.02,East,90,0.0,0.2,73,0.00,,,0.00,WUHU216HW,2013-03-24 10:26:00,
2013-03-24 03:31:00,40.7,32.7,30.03,East,90,0.0,0.0,73,0.00,,,0.00,WUHU216HW,2013-03-24 10:31:00,
2013-03-24 03:36:00,40.7,32.7,30.02,East,90,0.0,0.0,73,0.00,,,0.00,WUHU216HW,2013-03-24 10:36:00,
2013-03-24 03:41:00,40.3,32.3,30.02,ENE,68,0.4,1.1,73,0.00,,,0.00,WUHU216HW,2013-03-24 10:41:00,
2013-03-24 03:46:00,40.3,32.7,30.02,ENE,68,0.0,1.1,74,0.00,,,0.00,WUHU216HW,2013-03-24 10:46:00,
2013-03-24 03:52:00,40.1,32.5,30.02,ENE,68,0.0,0.2,74,0.00,,,0.00,WUHU216HW,2013-03-24 10:52:00,
2013-03-24 03:57:00,40.0,32.3,30.02,ENE,68,0.0,0.0,74,0.00,,,0.00,WUHU216HW,2013-03-24 10:57:00,
2013-03-24 04:02:00,40.0,32.3,30.02,ENE,68,0.0,0.4,74,0.00,,,0.00,WUHU216HW,2013-03-24 11:02:00,
2013-03-24 04:07:00,39.8,32.1,30.02,East,90,0.4,0.4,74,0.00,,,0.00,WUHU216HW,2013-03-24 11:07:00,
2013-03-24 04:12:00,39.8,32.5,30.02,East,90,0.4,0.7,75,0.00,,,0.00,WUHU216HW,2013-03-24 11:12:00,
2013-03-24 04:17:00,39.6,32.3,30.02,East,90,0.0,0.7,75,0.00,,,0.00,WUHU216HW,2013-03-24 11:17:00,
2013-03-24 04:22:00,39.6,32.3,30.02,East,90,0.4,0.4,75,0.00,,,0.00,WUHU216HW,2013-03-24 11:22:00,
2013-03-24 04:27:00,39.4,32.1,30.02,East,90,0.0,0.4,75,0.00,,,0.00,WUHU216HW,2013-03-24 11:27:00,
2013-03-24 04:32:00,39.4,32.1,30.02,ENE,68,0.2,0.4,75,0.00,,,0.00,WUHU216HW,2013-03-24 11:32:00,
2013-03-24 04:37:00,39.2,32.0,30.02,ENE,68,0.0,0.4,75,0.00,,,0.00,WUHU216HW,2013-03-24 11:37:00,
2013-03-24 04:43:00,39.2,32.7,30.02,NE,45,0.0,0.2,77,0.00,,,0.00,WUHU216HW,2013-03-24 11:43:00,
2013-03-24 04:48:00,39.2,32.3,30.02,NE,45,0.0,0.0,76,0.00,,,0.00,WUHU216HW,2013-03-24 11:48:00,
2013-03-24 04:53:00,39.2,32.3,30.02,NE,45,0.0,0.2,76,0.00,,,0.00,WUHU216HW,2013-03-24 11:53:00,
2013-03-24 04:58:00,39.2,32.7,30.02,NE,45,0.0,0.2,77,0.00,,,0.00,WUHU216HW,2013-03-24 11:58:00,
2013-03-24 05:03:00,39.1,32.5,30.02,NE,45,0.0,0.0,77,0.00,,,0.00,WUHU216HW,2013-03-24 12:03:00,
2013-03-24 05:08:00,39.1,32.5,30.02,NE,45,0.0,0.0,77,0.00,,,0.00,WUHU216HW,2013-03-24 12:08:00,
2013-03-24 05:13:00,38.9,32.3,30.03,NE,45,0.4,0.4,77,0.00,,,0.00,WUHU216HW,2013-03-24 12:13:00,
2013-03-24 05:18:00,38.9,32.3,30.03,East,90,0.7,0.7,77,0.00,,,0.00,WUHU216HW,2013-03-24 12:18:00,
2013-03-24 05:23:00,38.7,32.1,30.02,NE,45,0.0,0.7,77,0.00,,,0.00,WUHU216HW,2013-03-24 12:23:00,
2013-03-24 05:28:00,38.5,32.0,30.02,NE,45,0.0,0.7,77,0.00,,,0.00,WUHU216HW,2013-03-24 12:28:00,
2013-03-24 05:33:00,38.5,32.0,30.02,ENE,68,0.0,0.0,77,0.00,,,0.00,WUHU216HW,2013-03-24 12:33:00,
2013-03-24 05:38:00,38.5,32.3,30.02,ENE,68,0.0,0.4,78,0.00,,,0.00,WUHU216HW,2013-03-24 12:38:00,
2013-03-24 05:43:00,38.5,32.0,30.02,East,90,0.0,0.4,77,0.00,,,0.00,WUHU216HW,2013-03-24 12:43:00,
2013-03-24 05:48:00,38.3,31.8,30.02,East,90,0.2,0.4,77,0.00,,,0.00,WUHU216HW,2013-03-24 12:48:00,
2013-03-24 05:54:00,38.3,31.8,30.02,East,90,0.0,0.4,77,0.00,,,0.00,WUHU216HW,2013-03-24 12:54:00,
2013-03-24 05:59:00,38.2,31.6,30.02,East,90,0.0,0.4,77,0.00,,,0.00,WUHU216HW,2013-03-24 12:59:00,
2013-03-24 06:04:00,38.2,31.6,30.02,ENE,68,0.0,0.4,77,0.00,,,0.00,WUHU216HW,2013-03-24 13:04:00,
2013-03-24 06:09:00,38.2,31.6,30.02,NE,45,0.0,0.4,77,0.00,,,0.00,WUHU216HW,2013-03-24 13:09:00,
2013-03-24 06:14:00,38.0,31.8,30.02,South,180,0.0,0.2,78,0.00,,,0.00,WUHU216HW,2013-03-24 13:14:00,
2013-03-24 06:19:00,37.8,31.2,30.02,South,180,0.0,0.2,77,0.00,,,0.00,WUHU216HW,2013-03-24 13:19:00,
2013-03-24 06:24:00,37.8,31.6,30.02,ENE,68,0.0,0.2,78,0.00,,,0.00,WUHU216HW,2013-03-24 13:24:00,
2013-03-24 06:29:00,37.8,31.6,30.02,ENE,68,0.0,0.2,78,0.00,,,0.00,WUHU216HW,2013-03-24 13:29:00,
2013-03-24 06:34:00,37.8,31.6,30.03,ENE,68,0.2,0.2,78,0.00,,,0.00,WUHU216HW,2013-03-24 13:34:00,
2013-03-24 06:39:00,37.8,31.9,30.02,ENE,68,0.4,0.7,79,0.00,,,0.00,WUHU216HW,2013-03-24 13:39:00,
2013-03-24 06:44:00,37.8,31.9,30.03,East,90,0.4,0.7,79,0.00,,,0.00,WUHU216HW,2013-03-24 13:44:00,
2013-03-24 06:49:00,37.8,31.9,30.03,East,90,0.0,0.7,79,0.00,,,0.00,WUHU216HW,2013-03-24 13:49:00,
2013-03-24 06:54:00,37.6,31.7,30.03,East,90,0.0,0.7,79,0.00,,,0.00,WUHU216HW,2013-03-24 13:54:00,
2013-03-24 06:59:00,37.6,31.4,30.03,ENE,68,0.4,0.4,78,0.00,,,0.00,WUHU216HW,2013-03-24 13:59:00,
2013-03-24 07:05:00,37.4,31.5,30.03,East,90,0.2,0.4,79,0.00,,,0.00,WUHU216HW,2013-03-24 14:05:00,
2013-03-24 07:10:00,37.4,31.5,30.03,East,90,0.2,0.4,79,0.00,,,0.00,WUHU216HW,2013-03-24 14:10:00,
2013-03-24 07:15:00,37.4,31.9,30.03,East,90,0.2,0.4,80,0.00,,,0.00,WUHU216HW,2013-03-24 14:15:00,
2013-03-24 07:20:00,37.4,31.5,30.03,East,90,0.0,0.4,79,0.00,,,0.00,WUHU216HW,2013-03-24 14:20:00,
2013-03-24 07:25:00,37.4,31.5,30.03,East,90,0.9,0.9,79,0.00,,,0.00,WUHU216HW,2013-03-24 14:25:00,
2013-03-24 07:30:00,37.4,31.9,30.03,East,90,0.0,0.9,80,0.00,,,0.00,WUHU216HW,2013-03-24 14:30:00,
2013-03-24 07:35:00,37.6,32.0,30.03,East,90,0.0,0.4,80,0.00,,,0.00,WUHU216HW,2013-03-24 14:35:00,
2013-03-24 07:40:00,37.6,32.0,30.04,East,90,0.0,0.2,80,0.00,,,0.00,WUHU216HW,2013-03-24 14:40:00,
2013-03-24 07:45:00,37.8,32.2,30.04,East,90,0.0,0.0,80,0.00,,,0.00,WUHU216HW,2013-03-24 14:45:00,
2013-03-24 07:50:00,38.0,32.4,30.04,ENE,68,0.0,0.7,80,0.00,,,0.00,WUHU216HW,2013-03-24 14:50:00,
2013-03-24 07:55:00,38.3,33.3,30.04,East,90,0.0,0.7,82,0.00,,,0.00,WUHU216HW,2013-03-24 14:55:00,
2013-03-24 08:00:00,38.9,33.8,30.04,ENE,68,0.4,0.7,82,0.00,,,0.00,WUHU216HW,2013-03-24 15:00:00,
2013-03-24 08:05:00,39.4,34.4,30.04,SSE,158,0.7,0.9,82,0.00,,,0.00,WUHU216HW,2013-03-24 15:05:00,
2013-03-24 08:10:00,40.0,34.9,30.04,SE,135,2.5,2.5,82,0.00,,,0.00,WUHU216HW,2013-03-24 15:10:00,
2013-03-24 08:16:00,40.7,35.8,30.04,ENE,68,0.0,2.5,83,0.00,,,0.00,WUHU216HW,2013-03-24 15:16:00,
2013-03-24 08:21:00,41.4,36.3,30.04,East,90,0.4,0.9,82,0.00,,,0.00,WUHU216HW,2013-03-24 15:21:00,
2013-03-24 08:26:00,42.1,37.0,30.04,East,90,2.2,2.2,82,0.00,,,0.00,WUHU216HW,2013-03-24 15:26:00,
2013-03-24 08:31:00,42.8,37.4,30.04,East,90,0.9,2.2,81,0.00,,,0.00,WUHU216HW,2013-03-24 15:31:00,
2013-03-24 08:36:00,43.9,37.5,30.04,ESE,113,1.6,2.5,78,0.00,,,0.00,WUHU216HW,2013-03-24 15:36:00,
2013-03-24 08:42:00,45.0,37.9,30.04,SE,135,1.8,2.5,76,0.00,,,0.00,WUHU216HW,2013-03-24 15:42:00,
2013-03-24 08:47:00,45.7,38.3,30.04,ESE,113,0.7,1.8,75,0.00,,,0.00,WUHU216HW,2013-03-24 15:47:00,
2013-03-24 08:52:00,46.4,38.6,30.05,SSE,158,0.9,1.8,74,0.00,,,0.00,WUHU216HW,2013-03-24 15:52:00,
2013-03-24 08:57:00,47.2,38.6,30.04,South,180,0.9,1.8,72,0.00,,,0.00,WUHU216HW,2013-03-24 15:57:00,
2013-03-24 09:02:00,47.9,38.9,30.05,SE,135,0.4,1.8,71,0.00,,,0.00,WUHU216HW,2013-03-24 16:02:00,
2013-03-24 09:07:00,48.8,39.1,30.05,SE,135,0.7,1.6,69,0.00,,,0.00,WUHU216HW,2013-03-24 16:07:00,
2013-03-24 09:12:00,49.9,38.9,30.05,South,180,1.1,2.0,66,0.00,,,0.00,WUHU216HW,2013-03-24 16:12:00,
2013-03-24 09:18:00,50.8,39.8,30.04,SSE,158,1.1,2.0,66,0.00,,,0.00,WUHU216HW,2013-03-24 16:18:00,
2013-03-24 09:23:00,52.0,40.1,30.04,SSW,203,1.8,1.8,64,0.00,,,0.00,WUHU216HW,2013-03-24 16:23:00,
2013-03-24 09:28:00,53.1,40.4,30.04,SE,135,1.1,2.0,62,0.00,,,0.00,WUHU216HW,2013-03-24 16:28:00,
2013-03-24 09:33:00,54.2,40.1,30.04,South,180,1.1,2.5,59,0.00,,,0.00,WUHU216HW,2013-03-24 16:33:00,
2013-03-24 09:38:00,55.4,40.9,30.04,SSE,158,0.0,2.5,58,0.00,,,0.00,WUHU216HW,2013-03-24 16:38:00,
2013-03-24 09:43:00,57.6,42.5,30.04,ESE,113,0.4,2.5,57,0.00,,,0.00,WUHU216HW,2013-03-24 16:43:00,
2013-03-24 09:48:00,59.6,42.8,30.05,ESE,113,1.6,2.5,54,0.00,,,0.00,WUHU216HW,2013-03-24 16:48:00,
2013-03-24 09:53:00,61.4,43.6,30.05,ENE,68,0.7,1.6,52,0.00,,,0.00,WUHU216HW,2013-03-24 16:53:00,
2013-03-24 09:58:00,63.0,44.1,30.05,WNW,293,0.0,1.3,50,0.00,,,0.00,WUHU216HW,2013-03-24 16:58:00,
2013-03-24 10:03:00,65.3,43.9,30.05,East,90,0.7,1.3,46,0.00,,,0.00,WUHU216HW,2013-03-24 17:03:00,
2013-03-24 10:08:00,67.1,45.0,30.04,West,270,0.0,0.7,45,0.00,,,0.00,WUHU216HW,2013-03-24 17:08:00,
2013-03-24 10:13:00,68.9,46.0,30.04,ESE,113,0.4,1.1,44,0.00,,,0.00,WUHU216HW,2013-03-24 17:13:00,
2013-03-24 10:18:00,69.7,44.9,30.04,SW,225,0.4,1.1,41,0.00,,,0.00,WUHU216HW,2013-03-24 17:18:00,
2013-03-24 10:23:00,69.8,44.5,30.04,West,270,0.4,1.8,40,0.00,,,0.00,WUHU216HW,2013-03-24 17:23:00,
2013-03-24 10:28:00,69.5,44.7,30.04,South,180,0.2,1.8,41,0.00,,,0.00,WUHU216HW,2013-03-24 17:28:00,
2013-03-24 10:33:00,68.2,43.6,30.04,SSW,203,1.1,1.6,41,0.00,,,0.00,WUHU216HW,2013-03-24 17:33:00,
2013-03-24 10:38:00,67.1,43.8,30.04,NNE,23,0.2,2.5,43,0.00,,,0.00,WUHU216HW,2013-03-24 17:38:00,
2013-03-24 10:44:00,66.4,43.2,30.04,NNE,23,1.8,2.5,43,0.00,,,0.00,WUHU216HW,2013-03-24 17:44:00,
2013-03-24 10:49:00,66.2,43.0,30.04,NNE,23,1.8,2.9,43,0.00,,,0.00,WUHU216HW,2013-03-24 17:49:00,
2013-03-24 10:54:00,66.2,43.6,30.04,NE,45,1.1,2.9,44,0.00,,,0.00,WUHU216HW,2013-03-24 17:54:00,
2013-03-24 10:59:00,66.4,43.2,30.03,SSW,203,1.6,2.5,43,0.00,,,0.00,WUHU216HW,2013-03-24 17:59:00,
2013-03-24 11:04:00,66.2,43.6,30.03,West,270,0.9,4.9,44,0.00,,,0.00,WUHU216HW,2013-03-24 18:04:00,
2013-03-24 11:09:00,66.1,43.5,30.03,SSW,203,0.7,4.9,44,0.00,,,0.00,WUHU216HW,2013-03-24 18:09:00,
2013-03-24 11:14:00,66.4,44.4,30.02,SSE,158,2.5,2.5,45,0.00,,,0.00,WUHU216HW,2013-03-24 18:14:00,
2013-03-24 11:19:00,66.2,42.4,30.02,SE,135,0.9,3.4,42,0.00,,,0.00,WUHU216HW,2013-03-24 18:19:00,
2013-03-24 11:24:00,66.2,43.0,30.02,West,270,0.7,3.4,43,0.00,,,0.00,WUHU216HW,2013-03-24 18:24:00,
2013-03-24 11:29:00,66.2,41.9,30.02,East,90,2.7,2.7,41,0.00,,,0.00,WUHU216HW,2013-03-24 18:29:00,
2013-03-24 11:34:00,66.2,43.0,30.02,NNW,338,0.2,2.7,43,0.00,,,0.00,WUHU216HW,2013-03-24 18:34:00,
2013-03-24 11:39:00,66.6,42.1,30.02,ENE,68,1.8,2.5,41,0.00,,,0.00,WUHU216HW,2013-03-24 18:39:00,
2013-03-24 11:45:00,66.8,41.0,30.02,South,180,0.9,2.5,39,0.00,,,0.00,WUHU216HW,2013-03-24 18:45:00,
2013-03-24 11:50:00,67.1,42.0,30.02,ESE,113,0.4,1.8,40,0.00,,,0.00,WUHU216HW,2013-03-24 18:50:00,
2013-03-24 11:55:00,67.3,41.5,30.02,NNE,23,0.2,1.1,39,0.00,,,0.00,WUHU216HW,2013-03-24 18:55:00,
2013-03-24 12:00:00,67.7,41.0,30.01,East,90,1.8,2.9,38,0.00,,,0.00,WUHU216HW,2013-03-24 19:00:00,
2013-03-24 12:05:00,67.7,41.8,30.01,East,90,2.5,3.4,39,0.00,,,0.00,WUHU216HW,2013-03-24 19:05:00,
2013-03-24 12:10:00,67.5,41.6,30.01,NE,45,1.8,3.6,39,0.00,,,0.00,WUHU216HW,2013-03-24 19:10:00,
2013-03-24 12:15:00,67.9,41.2,30.01,NNE,23,1.1,3.6,38,0.00,,,0.00,WUHU216HW,2013-03-24 19:15:00,
2013-03-24 12:20:00,67.9,41.9,30.01,NNE,23,3.1,3.1,39,0.00,,,0.00,WUHU216HW,2013-03-24 19:20:00,
2013-03-24 12:25:00,68.0,41.4,30.01,NNE,23,2.9,3.1,38,0.00,,,0.00,WUHU216HW,2013-03-24 19:25:00,
2013-03-24 12:30:00,68.4,41.7,30.01,NNE,23,2.0,3.1,38,0.00,,,0.00,WUHU216HW,2013-03-24 19:30:00,
2013-03-24 12:35:00,68.6,41.9,30.01,North,0,1.1,3.1,38,0.00,,,0.00,WUHU216HW,2013-03-24 19:35:00,
2013-03-24 12:40:00,68.8,41.3,30.01,NE,45,0.2,3.1,37,0.00,,,0.00,WUHU216HW,2013-03-24 19:40:00,
2013-03-24 12:45:00,68.9,41.4,30.01,North,0,1.1,2.5,37,0.00,,,0.00,WUHU216HW,2013-03-24 19:45:00,
2013-03-24 12:50:00,69.3,42.5,30.01,WSW,248,2.2,2.2,38,0.00,,,0.00,WUHU216HW,2013-03-24 19:50:00,
2013-03-24 12:55:00,69.7,42.9,30.01,WSW,248,2.7,4.0,38,0.00,,,0.00,WUHU216HW,2013-03-24 19:55:00,
2013-03-24 13:00:00,69.8,42.2,30.01,SE,135,1.8,4.0,37,0.00,,,0.00,WUHU216HW,2013-03-24 20:00:00,
2013-03-24 13:05:00,70.0,42.4,30.01,WSW,248,2.5,4.0,37,0.00,,,0.00,WUHU216HW,2013-03-24 20:05:00,
2013-03-24 13:10:00,70.2,44.0,30.01,West,270,2.5,4.3,39,0.00,,,0.00,WUHU216HW,2013-03-24 20:10:00,
2013-03-24 13:15:00,70.7,44.6,30.01,NNE,23,4.3,4.3,39,0.00,,,0.00,WUHU216HW,2013-03-24 20:15:00,
2013-03-24 13:21:00,70.9,45.5,30.01,SW,225,1.1,4.3,40,0.00,,,0.00,WUHU216HW,2013-03-24 20:21:00,
2013-03-24 13:26:00,71.3,45.0,30.00,SSW,203,2.7,5.4,39,0.00,,,0.00,WUHU216HW,2013-03-24 20:26:00,
2013-03-24 13:31:00,71.5,45.2,30.00,SSW,203,2.2,5.4,39,0.00,,,0.00,WUHU216HW,2013-03-24 20:31:00,
2013-03-24 13:36:00,71.6,46.1,30.00,WNW,293,1.3,4.5,40,0.00,,,0.00,WUHU216HW,2013-03-24 20:36:00,
2013-03-24 13:42:00,72.0,45.6,30.00,SW,225,3.8,4.7,39,0.00,,,0.00,WUHU216HW,2013-03-24 20:42:00,
2013-03-24 13:47:00,72.0,46.5,30.00,West,270,4.0,4.5,40,0.00,,,0.00,WUHU216HW,2013-03-24 20:47:00,
2013-03-24 13:52:00,72.2,45.8,29.99,South,180,1.3,6.3,39,0.00,,,0.00,WUHU216HW,2013-03-24 20:52:00,
2013-03-24 13:57:00,72.4,45.3,29.99,SW,225,3.4,6.3,38,0.00,,,0.00,WUHU216HW,2013-03-24 20:57:00,
2013-03-24 14:02:00,72.5,46.9,29.99,WSW,248,3.4,4.9,40,0.00,,,0.00,WUHU216HW,2013-03-24 21:02:00,
2013-03-24 14:07:00,72.7,46.3,29.99,West,270,6.0,6.0,39,0.00,,,0.00,WUHU216HW,2013-03-24 21:07:00,
2013-03-24 14:12:00,72.7,47.1,29.99,West,270,5.6,6.3,40,0.00,,,0.00,WUHU216HW,2013-03-24 21:12:00,
2013-03-24 14:17:00,72.7,47.6,29.98,NW,315,0.9,6.3,41,0.00,,,0.00,WUHU216HW,2013-03-24 21:17:00,
2013-03-24 14:22:00,72.7,48.2,29.98,West,270,5.4,5.4,42,0.00,,,0.00,WUHU216HW,2013-03-24 21:22:00,
2013-03-24 14:28:00,72.9,48.4,29.98,WSW,248,7.6,7.6,42,0.00,,,0.00,WUHU216HW,2013-03-24 21:28:00,
2013-03-24 14:33:00,73.3,48.2,29.98,West,270,3.4,7.6,41,0.00,,,0.00,WUHU216HW,2013-03-24 21:33:00,
2013-03-24 14:38:00,73.6,48.4,29.97,WSW,248,0.9,3.6,41,0.00,,,0.00,WUHU216HW,2013-03-24 21:38:00,
2013-03-24 14:43:00,73.8,48.1,29.97,WSW,248,4.3,5.4,40,0.00,,,0.00,WUHU216HW,2013-03-24 21:43:00,
2013-03-24 14:48:00,73.8,48.6,29.97,West,270,5.1,6.5,41,0.00,,,0.00,WUHU216HW,2013-03-24 21:48:00,
2013-03-24 14:53:00,73.6,48.4,29.97,NNW,338,0.4,6.5,41,0.00,,,0.00,WUHU216HW,2013-03-24 21:53:00,
2013-03-24 14:58:00,73.6,47.9,29.96,NNW,338,1.3,3.4,40,0.00,,,0.00,WUHU216HW,2013-03-24 21:58:00,
2013-03-24 15:03:00,73.4,48.3,29.96,SSW,203,2.5,3.4,41,0.00,,,0.00,WUHU216HW,2013-03-24 22:03:00,
2013-03-24 15:08:00,73.8,48.6,29.96,South,180,1.1,3.1,41,0.00,,,0.00,WUHU216HW,2013-03-24 22:08:00,
2013-03-24 15:13:00,74.0,48.2,29.95,NNE,23,1.1,3.1,40,0.00,,,0.00,WUHU216HW,2013-03-24 22:13:00,
2013-03-24 15:18:00,73.8,48.1,29.95,WNW,293,3.1,5.1,40,0.00,,,0.00,WUHU216HW,2013-03-24 22:18:00,
2013-03-24 15:23:00,74.0,48.8,29.95,West,270,4.0,5.1,41,0.00,,,0.00,WUHU216HW,2013-03-24 22:23:00,
2013-03-24 15:28:00,74.2,48.3,29.95,WSW,248,4.5,4.5,40,0.00,,,0.00,WUHU216HW,2013-03-24 22:28:00,
2013-03-24 15:33:00,74.3,47.8,29.95,WSW,248,5.1,5.1,39,0.00,,,0.00,WUHU216HW,2013-03-24 22:33:00,
2013-03-24 15:39:00,74.5,48.7,29.95,SW,225,3.4,5.1,40,0.00,,,0.00,WUHU216HW,2013-03-24 22:39:00,
2013-03-24 15:44:00,74.5,48.7,29.95,WSW,248,5.1,5.1,40,0.00,,,0.00,WUHU216HW,2013-03-24 22:44:00,
2013-03-24 15:49:00,74.7,48.1,29.95,WNW,293,2.5,6.7,39,0.00,,,0.00,WUHU216HW,2013-03-24 22:49:00,
2013-03-24 15:54:00,74.9,49.0,29.95,WNW,293,5.1,6.7,40,0.00,,,0.00,WUHU216HW,2013-03-24 22:54:00,
2013-03-24 15:59:00,75.2,48.6,29.95,SW,225,4.7,5.8,39,0.00,,,0.00,WUHU216HW,2013-03-24 22:59:00,
2013-03-24 16:04:00,74.9,48.2,29.95,WSW,248,4.0,5.8,39,0.00,,,0.00,WUHU216HW,2013-03-24 23:04:00,
2013-03-24 16:09:00,74.5,47.9,29.95,West,270,4.5,8.7,39,0.00,,,0.00,WUHU216HW,2013-03-24 23:09:00,
2013-03-24 16:14:00,74.3,47.8,29.95,WSW,248,1.8,8.7,39,0.00,,,0.00,WUHU216HW,2013-03-24 23:14:00,
2013-03-24 16:19:00,74.2,47.6,29.94,WSW,248,7.6,7.6,39,0.00,,,0.00,WUHU216HW,2013-03-24 23:19:00,
2013-03-24 16:24:00,74.0,48.2,29.94,West,270,5.4,7.6,40,0.00,,,0.00,WUHU216HW,2013-03-24 23:24:00,
2013-03-24 16:29:00,74.0,48.2,29.94,West,270,5.4,6.3,40,0.00,,,0.00,WUHU216HW,2013-03-24 23:29:00,
2013-03-24 16:34:00,73.8,47.3,29.93,West,270,2.5,5.6,39,0.00,,,0.00,WUHU216HW,2013-03-24 23:34:00,
2013-03-24 16:39:00,73.6,47.1,29.93,WNW,293,4.0,5.6,39,0.00,,,0.00,WUHU216HW,2013-03-24 23:39:00,
2013-03-24 16:44:00,73.4,47.0,29.93,West,270,2.7,6.0,39,0.00,,,0.00,WUHU216HW,2013-03-24 23:44:00,
2013-03-24 16:49:00,73.1,47.3,29.93,SW,225,1.8,6.0,40,0.00,,,0.00,WUHU216HW,2013-03-24 23:49:00,
2013-03-24 16:54:00,72.9,47.3,29.93,WSW,248,5.6,5.8,40,0.00,,,0.00,WUHU216HW,2013-03-24 23:54:00,
2013-03-24 16:59:00,72.5,46.9,29.92,SSW,203,3.4,5.8,40,0.00,,,0.00,WUHU216HW,2013-03-24 23:59:00,
2013-03-24 17:04:00,72.2,47.2,29.93,West,270,2.2,5.4,41,0.00,,,0.00,WUHU216HW,2013-03-25 00:04:00,
2013-03-24 17:09:00,71.8,46.8,29.92,WSW,248,1.6,5.4,41,0.00,,,0.00,WUHU216HW,2013-03-25 00:09:00,
2013-03-24 17:14:00,71.6,47.3,29.92,WSW,248,4.7,4.7,42,0.00,,,0.00,WUHU216HW,2013-03-25 00:14:00,
2013-03-24 17:19:00,71.6,47.3,29.92,West,270,4.0,4.7,42,0.00,,,0.00,WUHU216HW,2013-03-25 00:19:00,
2013-03-24 17:25:00,71.5,47.7,29.92,WNW,293,5.1,5.1,43,0.00,,,0.00,WUHU216HW,2013-03-25 00:25:00,
2013-03-24 17:30:00,71.5,47.7,29.92,WNW,293,1.6,5.1,43,0.00,,,0.00,WUHU216HW,2013-03-25 00:30:00,
2013-03-24 17:35:00,71.3,48.2,29.92,WSW,248,3.8,5.1,44,0.00,,,0.00,WUHU216HW,2013-03-25 00:35:00,
2013-03-24 17:40:00,70.7,47.6,29.92,WNW,293,4.7,6.0,44,0.00,,,0.00,WUHU216HW,2013-03-25 00:40:00,
2013-03-24 17:45:00,70.2,47.8,29.92,West,270,4.7,6.0,45,0.00,,,0.00,WUHU216HW,2013-03-25 00:45:00,
2013-03-24 17:50:00,69.7,47.9,29.92,NW,315,6.3,6.3,46,0.00,,,0.00,WUHU216HW,2013-03-25 00:50:00,
2013-03-24 17:55:00,69.5,47.7,29.92,West,270,3.4,6.3,46,0.00,,,0.00,WUHU216HW,2013-03-25 00:55:00,
2013-03-24 18:00:00,68.9,46.6,29.92,WSW,248,4.3,8.5,45,0.00,,,0.00,WUHU216HW,2013-03-25 01:00:00,
2013-03-24 18:05:00,68.8,46.4,29.92,West,270,1.6,8.5,45,0.00,,,0.00,WUHU216HW,2013-03-25 01:05:00,
2013-03-24 18:10:00,68.4,46.7,29.92,WSW,248,5.6,5.6,46,0.00,,,0.00,WUHU216HW,2013-03-25 01:10:00,
2013-03-24 18:16:00,68.0,46.5,29.92,WSW,248,3.6,6.9,46,0.00,,,0.00,WUHU216HW,2013-03-25 01:16:00,
2013-03-24 18:21:00,67.7,46.7,29.92,WNW,293,3.4,6.9,47,0.00,,,0.00,WUHU216HW,2013-03-25 01:21:00,
2013-03-24 18:26:00,67.5,46.5,29.92,WSW,248,2.7,8.3,47,0.00,,,0.00,WUHU216HW,2013-03-25 01:26:00,
2013-03-24 18:31:00,67.3,46.4,29.92,West,270,3.4,8.3,47,0.00,,,0.00,WUHU216HW,2013-03-25 01:31:00,
2013-03-24 18:36:00,67.0,46.0,29.92,NW,315,1.6,4.3,47,0.00,,,0.00,WUHU216HW,2013-03-25 01:36:00,
2013-03-24 18:41:00,66.4,45.5,29.92,West,270,1.8,3.8,47,0.00,,,0.00,WUHU216HW,2013-03-25 01:41:00,
2013-03-24 18:46:00,66.1,45.2,29.92,NW,315,3.4,3.8,47,0.00,,,0.00,WUHU216HW,2013-03-25 01:46:00,
2013-03-24 18:51:00,65.7,44.8,29.92,WSW,248,1.1,3.4,47,0.00,,,0.00,WUHU216HW,2013-03-25 01:51:00,
2013-03-24 18:57:00,65.3,45.1,29.92,NW,315,1.3,2.5,48,0.00,,,0.00,WUHU216HW,2013-03-25 01:57:00,
2013-03-24 19:02:00,65.0,44.7,29.92,West,270,0.4,2.5,48,0.00,,,0.00,WUHU216HW,2013-03-25 02:02:00,
2013-03-24 19:07:00,64.4,44.2,29.92,NW,315,0.7,2.2,48,0.00,,,0.00,WUHU216HW,2013-03-25 02:07:00,
2013-03-24 19:12:00,64.1,45.0,29.92,NW,315,1.1,2.5,50,0.00,,,0.00,WUHU216HW,2013-03-25 02:12:00,
2013-03-24 19:17:00,63.5,46.0,29.92,WNW,293,5.6,5.6,53,0.00,,,0.00,WUHU216HW,2013-03-25 02:17:00,
2013-03-24 19:22:00,62.8,46.4,29.92,NW,315,5.6,5.6,55,0.00,,,0.00,WUHU216HW,2013-03-25 02:22:00,
2013-03-24 19:27:00,62.1,45.7,29.92,NNW,338,2.0,5.6,55,0.00,,,0.00,WUHU216HW,2013-03-25 02:27:00,
2013-03-24 19:32:00,61.7,45.8,29.92,NNW,338,1.8,4.9,56,0.00,,,0.00,WUHU216HW,2013-03-25 02:32:00,
2013-03-24 19:37:00,61.2,45.8,29.92,North,0,1.6,4.3,57,0.00,,,0.00,WUHU216HW,2013-03-25 02:37:00,
2013-03-24 19:42:00,60.8,45.6,29.92,NW,315,2.7,4.3,57,0.00,,,0.00,WUHU216HW,2013-03-25 02:42:00,
2013-03-24 19:47:00,60.5,45.2,29.93,NW,315,1.6,2.7,57,0.00,,,0.00,WUHU216HW,2013-03-25 02:47:00,
2013-03-24 19:52:00,60.1,45.3,29.93,NNW,338,1.3,1.8,58,0.00,,,0.00,WUHU216HW,2013-03-25 02:52:00,
2013-03-24 19:57:00,59.9,45.6,29.93,NW,315,1.1,1.8,59,0.00,,,0.00,WUHU216HW,2013-03-25 02:57:00,
2013-03-24 20:02:00,59.6,45.3,29.93,NW,315,1.8,3.4,59,0.00,,,0.00,WUHU216HW,2013-03-25 03:02:00,
2013-03-24 20:08:00,59.2,44.9,29.93,West,270,1.1,3.4,59,0.00,,,0.00,WUHU216HW,2013-03-25 03:08:00,
2013-03-24 20:13:00,58.9,44.6,29.94,NW,315,0.7,2.7,59,0.00,,,0.00,WUHU216HW,2013-03-25 03:13:00,
2013-03-24 20:18:00,58.5,44.7,29.94,WNW,293,2.0,2.7,60,0.00,,,0.00,WUHU216HW,2013-03-25 03:18:00,
2013-03-24 20:23:00,58.1,43.9,29.94,WNW,293,2.0,3.4,59,0.00,,,0.00,WUHU216HW,2013-03-25 03:23:00,
2013-03-24 20:28:00,57.8,43.6,29.94,WNW,293,4.3,4.3,59,0.00,,,0.00,WUHU216HW,2013-03-25 03:28:00,
2013-03-24 20:33:00,57.6,43.4,29.94,West,270,6.0,6.0,59,0.00,,,0.00,WUHU216HW,2013-03-25 03:33:00,
2013-03-24 20:38:00,57.4,42.8,29.94,West,270,1.1,6.0,58,0.00,,,0.00,WUHU216HW,2013-03-25 03:38:00,
2013-03-24 20:43:00,57.2,42.7,29.94,WNW,293,3.4,4.3,58,0.00,,,0.00,WUHU216HW,2013-03-25 03:43:00,
2013-03-24 20:48:00,57.1,42.5,29.94,West,270,1.8,4.0,58,0.00,,,0.00,WUHU216HW,2013-03-25 03:48:00,
2013-03-24 20:53:00,56.9,42.8,29.95,SW,225,2.5,4.0,59,0.00,,,0.00,WUHU216HW,2013-03-25 03:53:00,
2013-03-24 20:59:00,56.5,42.0,29.94,NNE,23,0.2,2.5,58,0.00,,,0.00,WUHU216HW,2013-03-25 03:59:00,
2013-03-24 21:00:00,56.5,42.0,29.95,NNE,23,0.0,2.5,58,0.00,,,0.00,WUHU216HW,2013-03-25 04:00:00,
2013-03-24 21:05:00,56.3,42.2,29.95,SSE,158,0.0,1.6,59,0.00,,,0.00,WUHU216HW,2013-03-25 04:05:00,
2013-03-24 21:10:00,56.0,41.9,29.95,SW,225,0.0,1.1,59,0.00,,,0.00,WUHU216HW,2013-03-25 04:10:00,
2013-03-24 21:15:00,55.8,42.9,29.95,SSE,158,0.4,1.1,62,0.00,,,0.00,WUHU216HW,2013-03-25 04:15:00,
2013-03-24 21:20:00,55.4,43.0,29.95,ESE,113,0.7,1.1,63,0.00,,,0.00,WUHU216HW,2013-03-25 04:20:00,
2013-03-24 21:26:00,55.1,42.7,29.95,North,0,0.0,1.1,63,0.00,,,0.00,WUHU216HW,2013-03-25 04:26:00,
2013-03-24 21:31:00,54.7,42.3,29.95,West,270,0.0,1.1,63,0.00,,,0.00,WUHU216HW,2013-03-25 04:31:00,
2013-03-24 21:36:00,54.4,42.4,29.95,NE,45,0.4,0.9,64,0.00,,,0.00,WUHU216HW,2013-03-25 04:36:00,
2013-03-24 21:41:00,54.0,42.0,29.95,North,0,0.0,0.9,64,0.00,,,0.00,WUHU216HW,2013-03-25 04:41:00,
2013-03-24 21:46:00,53.6,41.8,29.95,North,0,0.2,0.4,64,0.00,,,0.00,WUHU216HW,2013-03-25 04:46:00,
2013-03-24 21:51:00,53.5,41.6,29.95,NNE,23,0.0,0.7,64,0.00,,,0.00,WUHU216HW,2013-03-25 04:51:00,
2013-03-24 21:56:00,53.3,41.8,29.96,North,0,0.0,0.7,65,0.00,,,0.00,WUHU216HW,2013-03-25 04:56:00,
2013-03-24 22:01:00,52.9,41.9,29.95,North,0,0.0,0.4,66,0.00,,,0.00,WUHU216HW,2013-03-25 05:01:00,
2013-03-24 22:06:00,52.9,42.2,29.96,North,0,0.0,0.9,67,0.00,,,0.00,WUHU216HW,2013-03-25 05:06:00,
2013-03-24 22:12:00,52.7,41.7,29.96,North,0,0.0,0.9,66,0.00,,,0.00,WUHU216HW,2013-03-25 05:12:00,
2013-03-24 22:17:00,52.6,42.0,29.96,NNE,23,0.0,0.7,67,0.00,,,0.00,WUHU216HW,2013-03-25 05:17:00,
2013-03-24 22:22:00,52.6,42.0,29.96,NNE,23,0.0,0.4,67,0.00,,,0.00,WUHU216HW,2013-03-25 05:22:00,
2013-03-24 22:27:00,52.2,42.4,29.96,South,180,0.7,0.7,69,0.00,,,0.00,WUHU216HW,2013-03-25 05:27:00,
2013-03-24 22:32:00,52.2,41.9,29.96,SSW,203,0.2,0.7,68,0.00,,,0.00,WUHU216HW,2013-03-25 05:32:00,
2013-03-24 22:37:00,51.8,41.7,29.96,SW,225,0.4,0.7,68,0.00,,,0.00,WUHU216HW,2013-03-25 05:37:00,
2013-03-24 22:42:00,51.5,41.3,29.96,SSW,203,0.4,0.7,68,0.00,,,0.00,WUHU216HW,2013-03-25 05:42:00,
2013-03-24 22:47:00,51.3,41.1,29.96,SW,225,0.0,0.4,68,0.00,,,0.00,WUHU216HW,2013-03-25 05:47:00,
2013-03-24 22:52:00,50.9,40.8,29.97,SW,225,0.0,0.2,68,0.00,,,0.00,WUHU216HW,2013-03-25 05:52:00,
2013-03-24 22:57:00,50.8,41.1,29.96,East,90,0.2,0.4,69,0.00,,,0.00,WUHU216HW,2013-03-25 05:57:00,
2013-03-24 23:02:00,50.6,40.9,29.97,East,90,0.0,0.4,69,0.00,,,0.00,WUHU216HW,2013-03-25 06:02:00,
2013-03-24 23:07:00,50.4,41.0,29.97,ESE,113,0.0,0.0,70,0.00,,,0.00,WUHU216HW,2013-03-25 06:07:00,
2013-03-24 23:12:00,50.2,40.9,29.97,East,90,0.4,0.4,70,0.00,,,0.00,WUHU216HW,2013-03-25 06:12:00,
2013-03-24 23:18:00,49.9,41.2,29.97,East,90,0.2,0.4,72,0.00,,,0.00,WUHU216HW,2013-03-25 06:18:00,
2013-03-24 23:23:00,49.7,41.1,29.97,ENE,68,0.2,1.1,72,0.00,,,0.00,WUHU216HW,2013-03-25 06:23:00,
2013-03-24 23:28:00,49.3,40.7,29.97,NE,45,0.4,1.1,72,0.00,,,0.00,WUHU216HW,2013-03-25 06:28:00,
2013-03-24 23:33:00,49.0,40.3,29.97,NE,45,0.2,1.1,72,0.00,,,0.00,WUHU216HW,2013-03-25 06:33:00,
2013-03-24 23:38:00,48.8,40.4,29.97,East,90,0.7,0.9,73,0.00,,,0.00,WUHU216HW,2013-03-25 06:38:00,
2013-03-24 23:43:00,48.6,40.2,29.97,NNE,23,0.9,0.9,73,0.00,,,0.00,WUHU216HW,2013-03-25 06:43:00,
2013-03-24 23:48:00,48.4,40.1,29.97,NNE,23,0.4,0.9,73,0.00,,,0.00,WUHU216HW,2013-03-25 06:48:00,
2013-03-24 23:53:00,48.2,40.2,29.97,NNE,23,0.2,0.4,74,0.00,,,0.00,WUHU216HW,2013-03-25 06:53:00,
2013-03-24 23:58:00,48.1,40.1,29.97,NNE,23,0.4,0.4,74,0.00,,,0.00,WUHU216HW,2013-03-25 06:58:00,